This is the latest recevied weather packets stored in our database for station/object KI2K. If no packets are shown the sender has not sent any weather packets the latest 10 day(s).
| Time | Temp. | Humidity | Pressure | Rain* | Wind** | Luminosity | Snow |
|---|---|---|---|---|---|---|---|
| 1777632895 | 8.89° C | 98% | 1011.3 hPa | 0 mm | - | 0 W/m² | - |
| 1777632591 | 8.89° C | 98% | 1011.2 hPa | 0 mm | - | 0 W/m² | - |
| 1777632288 | 8.89° C | 98% | 1011.3 hPa | 1.78 mm | - | 0 W/m² | - |
| 1777631985 | 8.89° C | 98% | 1011.3 hPa | 4.83 mm | - | 0 W/m² | - |
| 1777631684 | 8.89° C | 97% | 1011.1 hPa | 3.05 mm | - | 0 W/m² | - |
| 1777631381 | 8.89° C | 97% | 1011.2 hPa | 1.78 mm | - | 0 W/m² | - |
| 1777631077 | 8.89° C | 97% | 1011.2 hPa | 1.27 mm | - | 0 W/m² | - |
| 1777630774 | 8.89° C | 97% | 1011.5 hPa | 1.27 mm | - | 0 W/m² | - |
| 1777630470 | 8.89° C | 97% | 1011.2 hPa | 1.78 mm | - | 0 W/m² | - |
| 1777630167 | 8.89° C | 96% | 1011.2 hPa | 1.78 mm | - | 0 W/m² | - |
| 1777629866 | 8.89° C | 96% | 1011.1 hPa | 0 mm | - | 0 W/m² | - |
| 1777629562 | 8.89° C | 96% | 1011.2 hPa | 0 mm | - | 0 W/m² | - |
| 1777629259 | 8.89° C | 96% | 1011.4 hPa | 0 mm | - | 0 W/m² | - |
| 1777628954 | 8.89° C | 96% | 1011.1 hPa | 0 mm | - | 0 W/m² | - |
| 1777628651 | 8.89° C | 95% | 1011.2 hPa | 0 mm | - | 0 W/m² | - |
| 1777628348 | 8.89° C | 95% | 1011.7 hPa | 1.27 mm | - | 0 W/m² | - |
| 1777628044 | 8.89° C | 94% | 1011.2 hPa | 3.05 mm | - | 0 W/m² | - |
| 1777627743 | 9.44° C | 93% | 1011.4 hPa | 1.78 mm | - | 0 W/m² | - |
| 1777627442 | 9.44° C | 93% | 1011.9 hPa | 0 mm | - | 0 W/m² | - |
| 1777627139 | 9.44° C | 92% | 1011.9 hPa | 1.78 mm | - | 0 W/m² | - |
| 1777626836 | 9.44° C | 91% | 1012 hPa | 1.78 mm | - | 0 W/m² | - |
| 1777626531 | 9.44° C | 91% | 1011.6 hPa | 0 mm | - | 0 W/m² | - |
| 1777626226 | 9.44° C | 91% | 1011.7 hPa | 0 mm | - | 0 W/m² | - |
| 1777625924 | 10° C | 90% | 1011.5 hPa | 0 mm | - | 0 W/m² | - |
| 1777625621 | 10° C | 90% | 1011.6 hPa | 0 mm | - | 0 W/m² | - |
* Rain latest hour (hover to see other rain measurements)
** Current wind speed in m/s (hover to see current wind gust speed)